| time (UTC) | temp F | wind direction | speed MPH | gust MPH | rain 1hr in | rain 24hr in | rain mn in | humidity % | barometer mb |
| 20260504081505 | 34 | 267 | 0.0 | 0.0 | 0.00 | 0.00 | 0.00 | 92 | 1012.9 |
| 20260504044542 | 38 | 267 | 0.0 | 0.0 | 0.00 | 0.00 | 0.00 | 86 | 1012.3 |
| 20260504043042 | 38 | 267 | 0.0 | 0.0 | 0.00 | 0.00 | 0.00 | 85 | 1012.1 |
| 20260504041536 | 39 | 267 | 0.0 | 0.0 | 0.00 | 0.00 | 0.00 | 84 | 1012.0 |
| 20260504040033 | 39 | 267 | 0.0 | 0.0 | 0.00 | 0.00 | 0.00 | 82 | 1011.9 |
| 20260504034531 | 40 | 267 | 0.0 | 0.0 | 0.00 | 0.00 | 0.00 | 81 | 1011.9 |
| 20260504033029 | 40 | 267 | 0.0 | 0.0 | 0.00 | 0.00 | 0.00 | 80 | 1011.9 |
| 20260504031526 | 41 | 267 | 0.0 | 0.0 | 0.00 | 0.00 | 0.00 | 78 | 1012.0 |
| 20260504030027 | 42 | 267 | 0.0 | 0.0 | 0.00 | 0.00 | 0.00 | 76 | 1011.9 |
| 20260504024623 | 43 | 267 | 0.0 | 0.0 | 0.00 | 0.00 | 0.00 | 74 | 1012.0 |
| 20260504023022 | 44 | 267 | 0.0 | 0.0 | 0.00 | 0.00 | 0.00 | 71 | 1011.9 |
| 20260504021524 | 45 | 267 | 0.0 | 0.0 | 0.00 | 0.00 | 0.00 | 67 | 1012.0 |
| 20260504020019 | 46 | 267 | 0.0 | 0.0 | 0.00 | 0.00 | 0.00 | 64 | 1012.0 |
| 20260504014519 | 48 | 267 | 0.0 | 0.0 | 0.00 | 0.00 | 0.00 | 61 | 1011.7 |
| 20260504013031 | 49 | 267 | 0.0 | 0.0 | 0.00 | 0.00 | 0.00 | 57 | 1011.6 |
| 20260504011518 | 51 | 267 | 0.0 | 0.0 | 0.00 | 0.00 | 0.00 | 52 | 1011.4 |
| 20260504010017 | 53 | 267 | 0.0 | 1.0 | 0.00 | 0.00 | 0.00 | 49 | 1011.2 |
| 20260504004515 | 54 | 267 | 0.0 | 0.0 | 0.00 | 0.00 | 0.00 | 42 | 1011.0 |
| 20260504003033 | 55 | 267 | 0.0 | 7.0 | 0.00 | 0.00 | 0.00 | 39 | 1010.9 |
| 20260504001515 | 55 | 311 | 1.0 | 6.0 | 0.00 | 0.00 | 0.00 | 38 | 1010.6 |
| 20260504000014 | 56 | 329 | 2.0 | 6.0 | 0.00 | 0.00 | 0.00 | 37 | 1010.4 |
| 20260503234514 | 56 | 262 | 0.0 | 4.0 | 0.00 | 0.00 | 0.00 | 38 | 1010.3 |
| 20260503233014 | 57 | 270 | 0.0 | 6.0 | 0.00 | 0.00 | 0.00 | 35 | 1010.2 |
| 20260503231514 | 57 | 268 | 0.0 | 3.0 | 0.00 | 0.00 | 0.00 | 34 | 1010.0 |
| 20260503230013 | 57 | 305 | 2.0 | 10.0 | 0.00 | 0.00 | 0.00 | 33 | 1009.8 |
| 20260503224524 | 58 | 293 | 4.0 | 9.0 | 0.00 | 0.00 | 0.00 | 32 | 1009.9 |
| 20260503223011 | 58 | 270 | 2.0 | 6.0 | 0.00 | 0.00 | 0.00 | 31 | 1009.6 |
| 20260503221510 | 58 | 312 | 3.0 | 12.0 | 0.00 | 0.00 | 0.00 | 31 | 1009.6 |
| 20260503220017 | 58 | 296 | 3.0 | 14.0 | 0.00 | 0.00 | 0.00 | 30 | 1009.6 |
| 20260503214511 | 58 | 308 | 4.0 | 11.0 | 0.00 | 0.00 | 0.00 | 30 | 1009.6 |
| 20260503213011 | 58 | 6 | 1.0 | 9.0 | 0.00 | 0.00 | 0.00 | 30 | 1009.4 |
| 20260503211508 | 58 | 295 | 4.0 | 9.0 | 0.00 | 0.00 | 0.00 | 29 | 1009.5 |
| 20260503210007 | 57 | 253 | 4.0 | 20.0 | 0.00 | 0.00 | 0.00 | 30 | 1009.5 |
| 20260503204507 | 58 | 276 | 3.0 | 10.0 | 0.00 | 0.00 | 0.00 | 30 | 1009.5 |
| 20260503203005 | 57 | 293 | 2.0 | 13.0 | 0.00 | 0.00 | 0.00 | 31 | 1009.5 |
| 20260503201504 | 58 | 303 | 4.0 | 13.0 | 0.00 | 0.00 | 0.00 | 31 | 1009.6 |
| 20260503200004 | 58 | 344 | 4.0 | 13.0 | 0.00 | 0.00 | 0.00 | 31 | 1009.9 |
| 20260503194603 | 57 | 339 | 3.0 | 12.0 | 0.00 | 0.00 | 0.00 | 32 | 1009.7 |
| 20260503193057 | 56 | 288 | 4.0 | 11.0 | 0.00 | 0.00 | 0.00 | 32 | 1010.2 |
| 20260503191555 | 56 | 2 | 3.0 | 12.0 | 0.00 | 0.00 | 0.00 | 34 | 1010.2 |
| 20260503190055 | 56 | 245 | 7.0 | 15.0 | 0.00 | 0.00 | 0.00 | 35 | 1010.3 |
| 20260503184605 | 55 | 307 | 4.0 | 13.0 | 0.00 | 0.00 | 0.00 | 34 | 1010.3 |
| 20260503183052 | 54 | 339 | 6.0 | 14.0 | 0.00 | 0.00 | 0.00 | 36 | 1010.4 |
| 20260503181554 | 54 | 242 | 6.0 | 14.0 | 0.00 | 0.00 | 0.00 | 36 | 1010.7 |
| 20260503180047 | 54 | 262 | 4.0 | 14.0 | 0.00 | 0.00 | 0.00 | 37 | 1010.7 |
| 20260503174543 | 53 | 313 | 5.0 | 17.0 | 0.00 | 0.00 | 0.00 | 41 | 1010.6 |
| 20260503173041 | 53 | 10 | 2.0 | 12.0 | 0.00 | 0.00 | 0.00 | 41 | 1010.9 |
| 20260503171602 | 51 | 285 | 3.0 | 14.0 | 0.00 | 0.00 | 0.00 | 46 | 1011.2 |